スペースウォッチ彗星

P/2006 XG16 ( Spacewatch )

English version
Home page
Updated on August 10, 2007

---------------------------------------------------------------------

・ プロフィール

発見日 2006年12月10日
発見光度
発見者 Spacewatch

・ 写真集

・ 軌道要素

The following orbital elements are taken from MPC 59875:

Epoch 2007 Mar. 1.0 TT = JDT 2454160.5
T 2007 Feb.  9.9505 TT                                  MPC
q   2.102210             (2000.0)            P               Q
n   0.1424741      Peri.   41.3073      -0.4882863      -0.8588831
a   3.630604       Node    78.4540      +0.7535215      -0.5042979
e   0.420975       Incl.    9.0779      +0.4402066      -0.0894615
P   6.92
From 81 observations 2006 Nov. 15-2007 Apr. 14, mean residual 0".5.

・ 光度変化

        m1 = 14.5 + 5 logΔ + 10.0 log r

---------------------------------------------------------------------

軌道要素はMPCのEphemerides and Orbital Elementsに掲載されたものです。
光度グラフはComet for Windowsで作成したものです。

---------------------------------------------------------------------

Copyright(C) Seiichi Yoshida (comet@aerith.net). All rights reserved.